This is the latest recevied weather packets stored in our database for station/object KC0CAU. If no packets are shown the sender has not sent any weather packets the latest 10 day(s).
| Time | Temp. | Humidity | Pressure | Rain* | Wind** | Luminosity | Snow |
|---|---|---|---|---|---|---|---|
| 1777675538 | 16.11° C | 35% | 1020.8 hPa | 0 mm | - | - | - |
| 1777674637 | 17.22° C | 34% | 1020.8 hPa | 0 mm | - | - | - |
| 1777673734 | 17.22° C | 35% | 1020.9 hPa | 0 mm | - | - | - |
| 1777672837 | 16.67° C | 37% | 1021.1 hPa | 0 mm | - | - | - |
| 1777671930 | 15.56° C | 40% | 1021.3 hPa | 0 mm | - | - | - |
| 1777671035 | 15° C | 39% | 1021.5 hPa | 0 mm | - | - | - |
| 1777670126 | 15° C | 39% | 1021.6 hPa | 0 mm | - | - | - |
| 1777669224 | 15° C | 40% | 1021.7 hPa | 0 mm | - | - | - |
| 1777668338 | 15° C | 39% | 1021.9 hPa | 0 mm | - | - | - |
| 1777667421 | 16.11° C | 39% | 1022.1 hPa | 0 mm | - | - | - |
| 1777666521 | 15.56° C | 38% | 1022.2 hPa | 0 mm | - | - | - |
| 1777665618 | 15° C | 40% | 1022.1 hPa | 0 mm | - | - | - |
| 1777664722 | 15° C | 40% | 1022.1 hPa | 0 mm | - | - | - |
| 1777663817 | 15.56° C | 42% | 1022.1 hPa | 0 mm | - | - | - |
| 1777662921 | 14.44° C | 41% | 1022.1 hPa | 0 mm | - | - | - |
| 1777662015 | 14.44° C | 41% | 1022.2 hPa | 0 mm | - | - | - |
| 1777661116 | 13.89° C | 44% | 1022.4 hPa | 0 mm | - | - | - |
| 1777660210 | 14.44° C | 43% | 1022.4 hPa | 0 mm | - | - | - |
| 1777659309 | 13.89° C | 43% | 1022.4 hPa | 0 mm | - | - | - |
| 1777658406 | 13.33° C | 45% | 1022.6 hPa | 0 mm | - | - | - |
| 1777657503 | 13.33° C | 44% | 1022.9 hPa | 0 mm | - | - | - |
| 1777656661 | 12.78° C | 45% | 1022.9 hPa | 0 mm | - | - | - |
| 1777655763 | 12.22° C | 46% | 1023.1 hPa | 0 mm | - | - | - |
| 1777654855 | 11.67° C | 46% | 1023.1 hPa | 0 mm | - | - | - |
| 1777653954 | 11.67° C | 45% | 1023.2 hPa | 0 mm | - | - | - |
* Rain latest hour (hover to see other rain measurements)
** Current wind speed in m/s (hover to see current wind gust speed)